Hourly Data Report for June 15, 2012

All times are specified in Local Standard Time (LST). Add 1 hour to adjust for Daylight Saving Time where and when it is observed.

MONCTON INTL A
NEW BRUNSWICK

46°06'44.000" N
64°40'43.000" W
70.70 m
8103201
71705
YQM

Download Data

Hourly Data (June 2012)
Hourly Data Report for June 15, 2012
Temp Definition
°C
Dew Point Temp Definition
°C
Rel Hum Definition
%
Wind Dir Definition
10's deg

Wind Spd Definition
km/h
Visibility Definition
km
Stn Press Definition
kPa
Hmdx Definition


Wind Chill Definition


Weather Definition


TIME
00:00 10.4 10.3 99 34 4 10.0 101.68     LegendNANA
01:00 10.1 10.1 100 31 6 10.0 101.64     LegendNANA
02:00 9.4 9.3 99 35 6 10.0 101.66     Fog
03:00 8.9 8.8 99 33 6 10.0 101.66     LegendNANA
04:00 9.1 9.0 99 29 8 10.0 101.65     Fog
05:00 9.8 9.2 96 33 13 10.0 101.67     Mostly Cloudy
06:00 10.5 10.1 97 34 15 10.0 101.69     LegendNANA
07:00 12.1 11.3 95 35 14 10.0 101.72     LegendNANA
08:00 15.2 11.6 79 1 26 10.0 101.76     Mostly Cloudy
09:00 16.2 12.0 76 36 26 10.0 101.78     LegendNANA
10:00 17.1 12.1 72 35 26 10.0 101.81     LegendNANA
11:00 17.7 12.2 70 1 25 10.0 101.85     Mostly Cloudy
12:00 17.5 11.6 68 36 31 10.0 101.93     LegendNANA
13:00 16.7 10.4 66 1 39 10.0 101.94     LegendNANA
14:00 17.2 10.6 65 1 30 10.0 101.94     Mostly Cloudy
15:00 16.5 11.9 74 3 24 10.0 101.92     LegendNANA
16:00 14.4 10.5 77 3 26 10.0 101.93     LegendNANA
17:00 13.5 10.2 80 36 27 10.0 101.92     Mostly Cloudy
18:00 12.0 9.8 86 0 21 10.0 101.90     LegendNANA
19:00 11.5 9.4 87 2 27 10.0 101.92     LegendNANA
20:00 11.1 9.7 91 2 26 10.0 101.95     Cloudy
21:00 11.1 9.7 91 3 16 10.0 102.01     LegendNANA
22:00 11.6 10.2 91 3 16 10.0 101.99     LegendNANA
23:00 11.6 10.4 92 3 15 10.0 101.98     Cloudy

Notes on Data Quality.

Legend

  • E = Estimated
  • M = Missing
  • NA = Not Available
Date modified: